Regional Weather Roundup
Issued by NWS

Home | Current Version | Previous Version | Graphics & Text | Print | Product List | Glossary Off
Versions: 1 2 3 4 5 6 7 8 9 10 11 12 13 14 15 16 17 18 19 20 21 22 23 24 25 26 27 28 29 30 31 32 33 34 35 36 37 38 39 40 41 42 43 44 45 46 47 48 49 50

209
ASUS43 KTOP 271559
RWRKS

WEATHER ROUNDUP FOR KANSAS
NATIONAL WEATHER SERVICE GOODLAND KS
1100 AM CDT TUE JUN 27 2017

NOTE:  "FAIR" INDICATES FEW OR NO CLOUDS BELOW 12,000 FEET WITH NO
SIGNIFICANT WEATHER AND/OR OBSTRUCTIONS TO VISIBILITY.

KSZ001>006-013>018-027>032-041>047-271700-
NORTHWEST KANSAS

CITY           SKY/WX    TMP DP  RH WIND       PRES   REMARKS
GOODLAND       PTSUNNY   67  62  84 SE16      29.94F
HAYS           PTSUNNY   76  67  73 SE16      29.95F
HILL CITY      CLOUDY    69  65  86 SE9       29.95F FOG
RUSSELL        SUNNY     77  65  66 SE18      29.95F
$$

KSZ061>065-074>080-084>089-271700-
SOUTHWEST KANSAS

CITY           SKY/WX    TMP DP  RH WIND       PRES   REMARKS
DODGE CITY     SUNNY     82  60  47 SW15      29.96F
ELKHART          N/A     80  50  35 S14         N/A
GARDEN CITY    SUNNY     85  58  39 SW18      29.95F
GREAT BEND       N/A     79  68  69 SE15G25   29.96F
LIBERAL        SUNNY     84  59  42 SW21      30.00F
$$

KSZ066>073-081>083-090>101-271700-
SOUTHEAST KANSAS

CITY           SKY/WX    TMP DP  RH WIND       PRES   REMARKS
CHANUTE        CLOUDY    72  65  78 SE9       30.07F
COFFEYVILLE    CLOUDY    76  65  68 S9        30.06F
HUTCHINSON     CLOUDY    76  65  68 SE14      29.99F
MEDICINE LODGE   N/A     83  67  58 S15       29.98F
NEWTON         PTSUNNY   71  66  84 SE15      30.02F
PARSONS        CLOUDY    76  66  71 S3        30.07F
WICHITA INTL   PTSUNNY   75  69  81 S12       30.01F
WICHITA JABRA  MOSUNNY   73  68  84 SE10      30.02F
WINFIELD       MOSUNNY   78  70  76 S13       30.02F
$$

KSZ007>012-019>026-033>040-048>060-102>105-271700-
NORTHEAST KANSAS

CITY           SKY/WX    TMP DP  RH WIND       PRES   REMARKS
CONCORDIA      PTSUNNY   76  63  64 SE17      30.00F
EMPORIA        CLOUDY    71  64  78 SE10      30.06F
LAWRENCE       MOSUNNY   74  62  66 SE14      30.07F
MANHATTAN      PTSUNNY   72  63  73 SE10      30.03F
OLATHE IND     SUNNY     72  59  63 SE15      30.09F
OLATHE EXE     SUNNY     71  60  68 SE17      30.08F
SALINA         PTSUNNY   76  65  68 SE16      30.00F
TOPEKA BILLARD PTSUNNY   72  64  76 SE10      30.07F
TOPEKA FORBES  CLOUDY    72  64  76 SE14G20   30.07F
$$




USA.gov is the U.S. government's official web portal to all federal, state and local government web resources and services.